This is the latest recevied weather packets stored in our database for station/object KC1DMA. If no packets are shown the sender has not sent any weather packets the latest 10 day(s).
| Time | Temp. | Humidity | Pressure | Rain* | Wind** | Luminosity | Snow |
|---|---|---|---|---|---|---|---|
| 1777895797 | 11.67° C | 51% | 1015 hPa | - | - | 211 W/m² | - |
| 1777895493 | 11.67° C | 51% | 1014.9 hPa | - | - | 211 W/m² | - |
| 1777895191 | 8.89° C | 57% | 1014.6 hPa | - | - | 62 W/m² | - |
| 1777894888 | 8.89° C | 57% | 1014.7 hPa | - | - | 62 W/m² | - |
| 1777894586 | 8.89° C | 57% | 1014.7 hPa | - | - | 62 W/m² | - |
| 1777894283 | 8.89° C | 57% | 1014.7 hPa | - | - | 62 W/m² | - |
| 1777893980 | 8.89° C | 57% | 1014.8 hPa | - | - | 62 W/m² | - |
| 1777893676 | 8.89° C | 57% | 1014.8 hPa | - | - | 62 W/m² | - |
| 1777893372 | 8.89° C | 57% | 1014.7 hPa | - | - | 62 W/m² | - |
| 1777893068 | 8.89° C | 57% | 1014.7 hPa | - | - | 62 W/m² | - |
| 1777892766 | 8.89° C | 57% | 1014.8 hPa | - | - | 59 W/m² | - |
| 1777892462 | 8.33° C | 57% | 1014.9 hPa | - | - | 62 W/m² | - |
| 1777892158 | 7.78° C | 58% | 1014.9 hPa | - | - | 19 W/m² | - |
| 1777891854 | 7.78° C | 58% | 1014.8 hPa | - | - | 19 W/m² | - |
| 1777891552 | 7.78° C | 58% | 1014.7 hPa | - | - | 19 W/m² | - |
| 1777891248 | 7.78° C | 58% | 1014.7 hPa | - | - | 19 W/m² | - |
| 1777890948 | 7.78° C | 58% | 1014.8 hPa | - | - | 19 W/m² | - |
| 1777890649 | 7.78° C | 58% | 1014.5 hPa | - | - | 19 W/m² | - |
| 1777890344 | 7.78° C | 58% | 1014.6 hPa | - | - | 19 W/m² | - |
| 1777890041 | 7.78° C | 58% | 1014.7 hPa | - | - | 19 W/m² | - |
| 1777889739 | 7.78° C | 58% | 1014.6 hPa | - | - | 19 W/m² | - |
| 1777889436 | 7.78° C | 58% | 1014.5 hPa | - | - | 12 W/m² | - |
| 1777889133 | 7.78° C | 58% | 1014.2 hPa | - | - | 12 W/m² | - |
| 1777888831 | 7.78° C | 58% | 1014.5 hPa | - | - | 10 W/m² | - |
| 1777888527 | 7.78° C | 57% | 1014.4 hPa | - | - | 8 W/m² | - |
* Rain since midnight (hover to see other rain measurements)
** Current wind speed in m/s (hover to see current wind gust speed)